Starlink 33937

operational
NORAD ID: 63704 Int'l Des: 2025-087 Owner: SPXS Country: US Constellation: starlink
LEOCIRCULAR

About Starlink 33937

Description loading...

Live Position

Loading 3D Globe...

Upcoming Passes

Altitude History

Altitude vs Time

uPlot chart will show altitude changes over time

Two-Line Element Set

1 63704U 25087H 26033.35479291 .00021422 00000-0 73284-3 0 9994
2 63704 53.1621 23.4025 0001213 88.8445 271.2695 15.30221158 43793
Epoch: Feb 2, 2026 • Age: 18 hours

Current Status

Altitude 477.6 km
Velocity 7.63 km/s
Sub-Earth Point 37.86°N, 3.57°W
Launch Date Apr 28, 2025
Age 0.7 years
Type internet

Technical Details

Classification Payload
Mass 575.00 kg
Dry Mass 530.00 kg
Total Mass 575.00 kg
Length 0.30 m
Diameter 4.10 m
Span 29.00 m
Shape Box + pan
Manufacturer SPXS
Bus Type Starlink V2MO
Phase Status In Orbit
Owner/State SPXS/US

Large Constellations

Loading constellations...